Regional Weather Roundup
Issued by NWS Burlington, VT

Home | Current Version | Previous Version | Text Only | Print | Product List | Glossary On
Versions: 1 2 3 4 5 6 7 8 9 10 11 12 13 14 15 16 17 18 19 20 21 22 23 24 25 26 27 28 29 30 31 32 33 34 35 36 37 38 39 40 41 42 43 44 45 46 47 48 49 50
000
ASUS41 KBTV 250830
RWRBTV
VERMONT REGIONAL WEATHER ROUNDUP
NATIONAL WEATHER SERVICE BURLINGTON VT
400 AM EDT TUE APR 25 2017

NOTE: "FAIR" INDICATES FEW OR NO CLOUDS BELOW 12,000 FEET WITH NO
SIGNIFICANT WEATHER AND/OR OBSTRUCTIONS TO VISIBILITY.

* THESE REPORTS ARE NOT UNDER NWS QUALITY CONTROL AND/OR DO NOT
  REPORT WEATHER SUCH AS PRECIPITATION AND FOG.

VTZ001>019-250900-
_____VERMONT_____


CITY           SKY/WX    TMP DP  RH WIND       PRES   REMARKS
BURLINGTON     FAIR      37  30  75 CALM      30.20F
MONTPELIER     FAIR      35  32  88 CALM      30.25S
MORRISVILLE    FAIR      30  29  96 S3        30.24S
ST. JOHNSBURY*   N/A     35  32  88 MISG      30.21F
LYNDONVILLE*   FAIR      35  30  83 CALM      30.23S
MIDDLEBURY*    FAIR      33  30  88 CALM      30.20R
RUTLAND*       FAIR      36  33  89 SE3       30.19F
SPRINGFIELD    FAIR      41  36  82 CALM      30.21S
HIGHGATE*      FAIR      32  26  80 CALM      30.22S
NEWPORT*       FAIR      32  27  84 CALM      30.24F
BENNINGTON     CLOUDY    48  38  68 CALM      30.13F
SUTTON*          N/A     37 N/A N/A MISG        N/A
ISLAND POND*     N/A     27 N/A N/A CALM        N/A
GALLUP MILLS*    N/A     32 N/A N/A MISG        N/A
UNION VILLAGE*   N/A     39 N/A N/A MISG        N/A
MT. MANSFIELD*   N/A     39 N/A N/A SE22        N/A  WCI  29

_____LAKE CHAMPLAIN_____


CITY           SKY/WX    TMP DP  RH WIND       PRES   REMARKS
BURTON ISLAND*   N/A     37  34  87 S1          N/A
COLCHESTER RF*   N/A     39  32  75 NW10        N/A
DIAMOND ISL*     N/A     41  28  60 N7          N/A

$$

NYZ007-026>031-035-052-083-087-250900-
_____NORTHERN NEW YORK_____


CITY           SKY/WX    TMP DP  RH WIND       PRES   REMARKS
PLATTSBURGH    FAIR      32  25  75 CALM      30.22S
SARANAC LAKE   FAIR      29  24  82 CALM      30.14S
MASSENA        FAIR      41  23  48 NE16      30.19F
OGDENSBURG*    FAIR      40  25  55 E7        30.15S
POTSDAM*       CLEAR     37  25  60 E6        30.16F
STARK FALLS*     N/A     39 N/A N/A E3          N/A
WATERTOWN      FAIR      39  33  79 NE10      30.08F
FT DRUM        FAIR      39  32  76 E8        30.09F
ALBANY         CLOUDY    46  30  53 N6        30.15F
GLENS FALLS    FAIR      39  29  67 N3        30.18S

$$
NHZ002-005-011-250900-
_____NEW HAMPSHIRE_____


CITY           SKY/WX    TMP DP  RH WIND       PRES   REMARKS
LEBANON        FAIR      40  36  86 CALM      30.21S
KEENE          MOCLDY    49  41  74 VRB7      30.20S
MT WASHINGTON  PTCLDY    36  27  69 S15         N/A  WCI  26
PLYMOUTH       FAIR      37  36  97 CALM      30.25R
WHITEFIELD     FAIR      38  32  79 NW5       30.21S

$$

_____REGIONAL QUEBEC LOCATIONS_____


CITY           SKY/WX    TMP DP  RH WIND       PRES   REMARKS
MONTREAL       PTCLDY    37  18  44 NE15G24   30.25F WCI  28
QUEBEC CITY    CLEAR     32  23  69 NE12G18   30.36F WCI  23
SHERBROOKE     CLEAR     34  19  55 NE8       30.25R WCI  27

_____REGIONAL ONTARIO LOCATIONS_____


CITY           SKY/WX    TMP DP  RH WIND       PRES   REMARKS
OTTAWA         PTCLDY    39  19  45 E15G21    30.19S WCI  31

______KEY______
VSB  - VISIBILITY IN MILES
WCI  - WIND CHILL INDEX
HX   - HEAT INDEX
$$
NNNN




USA.gov is the U.S. government's official web portal to all federal, state and local government web resources and services.